Wind_Speed
41 39 37 39 39 39 39 39 38 36 35 34 32 29 25 26 24 22 22 21 21 19 17 15 14 15 16 17 24 24 15 10 10 13 14 15 18 16 15 14 7 1 3 4 3 4 4 7 8 7 4 2 2 2 2 1 1 3 4 7 8 8 7 5 7 6 1 1 6 8 10 12 9 7 3 2 5 3 4 5 3 3 4 2 3 3 6 14
41 38 39 40 39 40 39 38 39 37 36 35 34 31 27 27 26 23 22 21 21 20 18 15 14 13 13 16 20 22 18 11 10 16 21 16 18 20 17 16 10 1 3 4 2 3 5 6 6 7 5 4 3 2 4 3 2 5 5 7 9 7 4 4 6 7 4 2 6 9 9 10 8 9 7 6 9 7 7 7 5 6 7 6 3 4 10 15
43 40 41 42 40 40 39 38 40 39 37 36 34 32 29 28 28 25 23 22 21 20 18 15 14 13 13 14 17 18 13 7 10 21 29 21 18 20 20 20 15 5 4 6 4 3 4 1 1 6 6 5 4 4 5 4 4 5 4 8 8 4 2 3 6 7 5 1 4 8 7 7 6 7 8 7 8 8 10 9 7 10 11 10 8 9 13 15
43 42 42 41 40 40 38 38 41 40 39 37 34 33 31 30 29 27 23 22 21 20 18 15 14 15 15 13 16 18 8 3 12 23 31 29 23 19 19 21 19 11 4 7 6 5 4 2 4 5 7 6 5 5 7 6 5 3 5 10 4 2 4 6 8 6 3 1 2 6 5 7 5 3 7 7 6 8 12 12 11 12 13 12 11 12 15 16
42 42 43 42 41 40 39 41 41 40 40 38 35 34 32 31 30 28 25 22 21 20 18 16 15 15 17 15 15 17 10 2 10 21 33 35 32 22 19 20 19 15 7 6 7 6 6 2 5 3 5 7 7 6 9 8 5 4 10 12 1 2 6 5 6 4 3 2 2 6 7 7 4 3 8 10 10 7 6 10 13 14 11 10 12 13 15 16
42 41 46 46 43 41 41 42 39 38 40 39 37 35 33 32 31 29 26 23 21 20 18 16 15 15 17 17 18 18 14 6 1 11 30 34 33 25 20 19 18 18 12 6 6 6 5 5 4 4 5 8 10 9 10 9 5 6 11 10 3 4 5 1 4 4 5 5 5 6 5 5 7 8 8 12 14 3 4 1 7 9 5 9 13 14 14 15
43 42 46 48 45 44 44 43 39 37 39 40 38 35 34 33 32 31 27 24 22 21 19 17 16 15 17 19 19 16 15 11 3 7 23 29 31 26 22 21 19 19 14 11 10 7 6 7 8 8 7 8 10 12 10 9 7 9 11 8 5 5 4 1 2 5 5 6 4 3 3 6 12 9 4 12 16 2 5 3 1 3 5 9 12 13 15 16
44 43 45 48 46 45 46 44 41 39 39 40 38 35 34 34 33 31 28 25 22 21 19 18 18 16 19 20 17 11 14 15 5 7 22 27 31 29 27 24 21 20 18 15 13 9 7 7 7 6 9 9 8 12 10 9 9 12 13 5 4 4 3 0 1 4 5 4 1 3 6 9 10 4 2 12 15 6 4 2 2 3 6 9 11 13 14 15
44 44 44 45 44 45 47 45 42 41 39 39 39 37 34 34 34 31 29 26 22 22 20 19 19 17 21 19 13 10 15 16 7 8 23 29 32 34 31 26 23 22 19 15 13 10 7 6 5 2 6 7 7 10 11 11 9 12 14 4 4 5 4 3 3 4 5 3 3 6 10 7 3 0 6 15 14 8 5 3 3 4 7 9 10 12 13 13
44 45 45 44 43 45 47 45 43 42 41 40 40 37 33 33 34 31 29 27 23 22 21 21 19 20 23 16 12 10 8 13 12 10 24 31 34 32 26 26 26 24 20 15 13 9 6 2 1 2 4 2 4 6 10 11 5 10 12 3 3 4 3 4 4 4 3 3 6 9 9 4 3 3 9 10 8 9 8 7 5 6 8 9 10 10 12 13
43 45 46 45 44 46 48 46 44 43 42 41 40 37 35 34 33 31 29 27 25 23 21 21 21 23 23 14 13 9 2 11 19 15 26 30 32 29 23 27 28 27 24 16 14 12 7 5 7 2 2 3 3 2 5 7 1 6 10 4 3 2 2 4 4 5 4 4 7 8 7 2 3 6 10 3 4 7 11 10 7 8 10 9 10 9 10 12
42 44 46 47 46 46 47 48 47 45 44 42 41 39 36 33 32 30 28 27 25 24 22 21 22 23 19 11 13 10 4 8 20 18 25 26 26 26 24 27 27 28 27 20 16 13 7 4 8 2 1 4 2 1 3 3 1 4 9 7 6 4 6 8 6 5 6 4 7 6 6 7 9 9 10 4 4 4 9 10 8 9 10 8 9 9 8 11
41 43 46 46 46 46 47 48 48 48 45 43 42 39 36 33 31 30 28 27 25 24 23 21 23 22 15 8 11 15 2 4 21 24 24 22 21 23 23 25 26 25 26 24 20 15 14 6 5 3 2 3 1 1 2 0 1 4 6 6 6 6 9 10 7 5 6 4 6 6 6 11 14 12 11 8 7 6 7 9 9 8 8 7 7 8 8 10
40 43 47 47 46 46 47 46 47 48 46 44 42 38 36 33 30 30 27 26 24 23 23 21 22 18 12 6 6 18 13 4 21 29 24 22 21 23 24 25 25 20 19 22 21 15 17 12 5 4 1 1 2 4 1 2 0 5 4 4 7 9 7 9 7 8 9 4 5 8 8 10 8 11 16 12 9 10 10 11 11 9 7 7 7 7 8 10
40 43 47 49 47 47 47 47 47 48 46 44 42 39 37 34 31 29 27 26 24 23 22 20 22 15 6 7 4 15 21 9 18 28 26 27 25 21 20 22 20 18 18 19 20 18 19 13 7 3 2 1 2 3 2 2 1 4 5 5 10 10 6 7 7 11 11 4 7 9 8 9 5 7 12 8 9 11 12 12 12 10 9 8 7 8 8 9
41 43 46 50 50 48 48 49 48 48 48 44 41 39 37 36 32 29 28 26 23 24 21 16 20 14 4 6 4 10 17 12 18 27 26 28 28 22 21 22 20 19 19 19 23 23 20 12 6 2 2 1 1 2 3 2 1 4 7 8 10 12 9 6 6 10 10 4 8 11 8 8 4 5 5 3 7 11 11 13 13 12 11 10 8 8 8 8
41 44 45 49 50 49 50 50 49 49 49 46 42 39 38 34 31 29 26 25 24 24 20 11 15 12 4 3 4 7 13 14 18 26 27 27 28 29 26 19 17 19 20 20 21 18 12 6 4 1 1 1 3 2 4 6 7 7 8 9 9 13 13 9 5 6 8 5 10 12 11 13 7 4 4 2 6 9 11 13 13 12 11 10 9 8 8 8
42 45 45 48 49 49 50 50 50 48 48 47 40 37 37 31 29 29 26 26 22 18 12 7 12 9 7 10 10 10 15 19 23 27 26 24 28 32 24 15 15 19 18 12 10 7 3 3 4 1 2 3 4 5 9 10 9 12 13 9 6 11 17 16 7 6 9 9 11 12 14 18 15 7 5 4 5 8 12 12 12 13 12 11 9 9 9 9
43 44 45 47 49 50 49 48 50 47 45 43 36 32 30 24 22 22 23 23 17 10 8 9 14 8 4 13 16 10 12 21 26 26 25 24 28 26 20 18 16 13 10 5 6 6 4 4 4 4 6 8 10 10 10 4 4 12 16 11 7 9 14 13 5 4 9 9 11 14 14 17 17 12 10 8 6 8 10 10 10 10 10 9 9 9 10 11
43 42 44 47 50 52 50 51 51 49 46 42 36 27 18 15 11 9 12 14 13 11 8 9 16 8 5 5 16 11 9 19 22 21 27 29 27 21 14 16 12 8 8 7 8 7 4 5 5 8 10 11 13 14 11 6 7 7 13 11 9 11 11 8 4 3 6 8 10 13 15 18 17 14 14 13 10 9 10 12 12 11 10 9 9 10 10 12
43 42 44 47 51 51 52 54 53 52 49 46 41 20 9 14 10 10 13 10 15 14 5 7 14 10 3 4 13 15 7 13 16 14 25 30 26 19 11 13 13 10 10 10 10 6 5 7 9 13 12 11 11 12 11 10 10 6 11 10 11 13 10 5 4 4 4 6 9 10 14 19 18 14 15 14 13 14 14 15 16 16 14 10 11 13 12 11
41 40 44 47 51 51 52 53 52 55 50 45 39 14 12 22 12 15 20 8 14 14 4 7 9 11 5 4 6 15 6 8 13 12 22 27 21 15 12 14 15 11 11 12 11 7 6 8 14 14 11 9 8 10 12 11 10 8 7 9 10 10 6 3 3 3 4 5 7 7 9 16 17 15 15 14 13 16 17 18 18 17 15 14 14 14 13 12
40 41 44 47 53 55 54 52 52 55 47 40 32 17 24 29 15 20 19 4 9 12 7 8 9 12 11 1 3 11 10 10 12 14 24 25 16 14 14 16 16 11 12 13 11 11 9 11 14 14 10 9 9 11 13 11 9 8 7 10 9 9 8 4 4 5 5 4 3 4 6 12 15 14 14 14 15 17 18 18 18 16 15 17 17 15 14 16
41 42 44 48 56 57 55 53 50 50 45 39 30 23 32 30 19 26 15 3 6 9 9 9 7 10 9 3 3 7 10 8 8 14 24 22 13 12 14 15 15 11 11 15 15 14 11 8 13 14 13 13 11 11 13 10 9 9 9 11 8 10 9 3 5 6 3 4 3 4 7 10 13 14 14 12 15 18 18 17 17 15 16 17 17 17 16 17
41 43 45 51 55 57 58 50 44 45 42 34 24 23 34 28 23 28 12 3 4 4 5 7 3 7 7 4 5 5 5 5 6 12 20 20 14 12 10 9 9 10 13 18 15 12 11 9 16 15 14 15 13 11 13 11 9 10 10 10 7 11 9 6 8 7 3 6 6 5 8 8 9 12 12 8 10 14 15 14 16 15 15 16 15 16 16 16
42 42 46 53 54 59 53 30 35 47 34 23 22 27 34 29 27 27 9 2 5 4 7 11 7 10 11 7 8 6 2 6 5 11 19 22 17 10 8 6 4 8 13 13 9 6 7 10 15 16 14 15 13 11 13 11 9 8 6 7 5 10 9 9 10 7 6 6 3 6 9 8 7 10 10 7 7 12 13 12 15 14 14 14 14 14 14 13
42 42 48 54 54 58 38 15 34 42 21 19 30 32 33 32 30 22 6 2 4 5 8 8 6 13 16 11 12 10 3 4 6 9 18 22 15 6 8 10 6 8 9 7 6 5 8 12 13 15 14 13 11 11 13 13 10 7 3 4 5 9 10 10 9 7 6 2 0 5 6 7 9 8 7 8 8 13 15 13 14 13 13 13 13 14 14 14
42 44 51 53 55 58 38 27 38 28 18 31 38 35 34 34 27 13 4 3 3 5 7 6 4 11 14 11 14 11 3 7 6 9 17 22 15 4 8 15 11 13 15 11 10 8 12 16 15 16 13 10 12 11 11 13 10 6 3 5 5 7 8 8 8 7 1 2 6 7 5 6 10 5 3 6 10 14 16 17 17 14 12 12 13 14 15 16
40 45 52 54 56 55 41 40 39 24 29 43 41 39 36 30 19 6 4 5 2 4 6 7 6 9 11 11 15 15 6 3 2 5 13 17 12 2 5 12 12 15 17 13 9 5 7 14 16 16 11 10 13 10 11 15 10 4 3 3 4 4 5 4 5 3 3 3 11 8 9 7 10 8 6 5 7 13 15 15 15 13 12 12 13 13 14 13
41 45 51 55 51 44 35 35 35 31 40 46 43 42 32 19 11 7 8 5 2 5 5 7 9 12 15 12 12 16 12 6 2 5 12 12 10 4 2 2 6 12 13 9 4 1 1 5 11 10 7 7 10 10 13 15 10 4 3 4 6 3 4 3 1 2 2 7 8 10 14 10 10 9 9 7 8 12 13 12 11 10 12 12 11 9 8 9
42 46 52 53 46 38 28 21 30 41 45 47 45 34 18 8 7 10 9 2 3 6 5 8 11 15 19 16 12 14 15 10 4 6 9 8 10 8 3 1 2 7 9 7 4 2 1 5 6 4 2 6 8 8 9 9 10 8 3 4 5 1 2 2 2 3 8 8 5 10 15 14 13 8 5 5 6 7 10 11 10 9 9 9 7 5 6 7
43 47 53 53 45 40 30 25 40 50 49 50 39 18 8 6 6 8 6 4 4 6 7 11 14 15 20 18 13 15 15 12 9 9 7 7 8 9 9 8 6 7 8 9 8 5 2 4 5 3 3 9 11 7 3 4 9 8 4 6 5 2 3 4 4 4 9 6 1 3 11 13 14 11 9 8 6 7 8 9 9 8 7 7 5 5 5 5
46 49 52 52 45 38 35 41 52 52 51 49 28 8 6 6 7 9 8 5 5 7 10 13 16 18 21 18 13 14 14 11 12 12 8 8 9 10 10 11 14 11 8 11 11 8 6 4 6 6 4 7 11 9 6 5 8 10 9 9 8 4 5 8 7 4 7 4 2 2 5 7 9 8 13 16 14 13 11 9 9 9 9 6 3 3 3 3
46 51 50 47 42 38 42 49 55 55 51 36 15 8 10 6 7 11 11 6 2 6 12 14 17 19 19 17 14 15 13 11 13 13 9 6 6 10 10 11 16 12 5 9 8 9 11 8 10 12 8 11 13 12 11 10 11 12 10 9 9 6 4 7 8 7 6 1 2 4 4 6 5 0 3 8 10 10 8 7 6 7 7 5 4 5 5 5
45 51 46 39 36 41 49 52 57 58 42 20 8 9 10 8 8 10 10 6 2 5 13 16 18 17 15 14 14 17 12 9 14 14 10 9 5 7 11 10 15 11 6 8 5 6 9 5 9 12 8 15 19 13 12 11 9 9 7 8 9 6 3 2 1 3 2 0 3 6 4 5 2 6 8 6 6 7 8 6 6 7 6 4 6 7 6 7
46 45 37 32 35 45 53 52 56 53 31 12 10 10 9 8 8 9 10 8 5 9 16 16 15 14 14 12 12 18 12 6 13 12 8 11 9 7 9 9 14 14 10 10 5 6 8 5 10 12 6 15 20 14 14 12 8 7 8 9 6 2 3 3 1 2 1 6 6 7 7 7 4 11 13 12 13 13 12 10 8 8 5 4 7 7 6 7
39 34 24 24 37 49 54 53 52 42 21 10 11 11 9 7 4 8 11 7 4 11 15 11 10 11 13 12 11 17 14 6 11 10 6 9 8 8 9 7 12 17 13 10 5 4 6 3 9 17 16 17 16 15 15 12 6 5 9 9 4 0 2 2 4 2 2 8 5 8 12 9 6 7 4 7 14 17 17 12 7 5 5 5 7 7 7 6
29 25 15 21 43 52 54 54 45 27 12 8 9 9 7 5 3 7 12 8 5 11 11 6 8 10 12 14 13 16 17 11 11 11 8 7 6 10 12 7 10 17 14 7 3 3 5 1 3 14 17 12 8 11 12 8 3 2 7 9 6 3 4 3 5 6 6 9 6 7 9 8 10 8 3 6 8 8 11 9 5 6 7 6 6 6 5 3
21 16 6 23 50 54 55 52 32 14 8 10 10 8 6 6 2 4 11 11 7 10 12 6 5 7 10 14 13 16 18 15 13 11 9 8 5 11 18 11 8 15 15 8 3 4 6 4 3 7 9 9 7 8 9 8 6 4 4 6 2 2 4 5 5 4 5 8 8 5 4 5 10 10 10 16 12 5 5 5 7 9 6 5 5 4 3 2
13 6 3 29 52 51 51 40 17 8 9 10 8 6 7 7 2 2 4 9 6 5 8 8 6 6 10 13 13 14 15 15 14 10 8 10 9 10 17 15 9 13 17 12 5 4 5 4 4 4 5 8 6 8 11 14 12 7 7 8 5 2 1 3 5 3 3 7 8 7 6 5 6 10 15 19 15 12 9 6 8 7 4 5 4 3 4 4
8 3 4 33 51 47 38 19 6 7 7 6 7 5 6 6 4 2 1 2 3 0 2 7 8 7 8 11 12 13 12 12 13 10 7 10 11 8 13 18 14 12 13 11 7 7 6 4 5 5 6 8 9 12 16 18 17 12 10 11 10 8 4 4 7 5 3 5 5 5 8 6 4 7 12 13 12 14 12 8 7 6 6 6 3 3 6 5
7 3 8 37 52 42 24 7 4 7 4 5 7 4 5 6 7 6 2 3 3 1 1 4 6 7 7 8 11 13 12 11 13 11 8 11 12 9 12 20 21 16 12 10 9 6 1 3 5 4 4 6 5 5 8 13 16 10 5 7 9 8 8 8 9 7 5 5 2 3 7 4 4 6 8 7 8 9 6 4 5 5 5 4 3 5 6 5
5 5 17 44 53 35 15 6 8 6 3 5 6 4 4 5 7 7 4 4 2 1 3 4 3 5 6 6 9 13 12 10 13 13 11 12 13 8 13 20 20 19 14 9 7 4 1 3 6 4 2 1 2 2 1 5 10 6 3 5 7 10 12 8 5 3 6 7 5 5 8 5 3 3 3 3 2 3 3 3 5 5 3 3 5 5 5 5
6 7 12 35 46 30 11 8 10 9 7 8 8 6 2 2 7 8 8 9 5 3 6 5 2 3 3 3 6 14 14 9 11 14 11 10 7 4 13 20 18 16 13 9 9 7 5 6 7 6 6 3 2 3 2 3 7 7 8 10 11 15 13 5 0 1 6 11 10 8 10 6 2 2 1 1 2 3 3 2 3 5 3 4 5 4 4 5
8 6 4 16 26 17 5 5 10 11 11 10 11 10 6 2 2 5 10 8 3 3 5 2 2 4 3 2 3 10 14 10 8 10 10 8 4 1 9 19 16 12 11 11 10 8 5 6 7 8 9 8 9 10 9 10 9 8 11 15 16 19 18 10 5 5 7 10 11 11 10 2 3 1 2 1 1 4 4 2 3 5 5 5 4 3 3 4
6 4 5 6 8 7 2 1 6 8 10 12 10 9 10 7 2 1 6 6 2 3 3 2 2 4 3 3 3 5 11 12 7 5 9 9 4 2 8 16 15 13 13 10 6 4 1 4 9 11 9 7 6 6 8 12 13 12 16 20 20 20 21 14 6 7 11 10 9 14 12 3 1 4 5 4 4 5 7 6 5 5 6 5 5 4 3 3
3 4 8 6 5 7 4 3 7 7 10 13 10 9 13 12 6 3 1 3 4 3 3 3 2 5 6 8 6 3 7 12 8 5 10 10 3 2 8 13 14 17 18 11 5 5 1 3 9 13 13 6 1 3 8 12 15 17 19 22 21 18 19 16 12 14 13 8 11 16 12 7 7 8 7 7 7 6 8 9 7 6 6 5 3 3 4 4
2 4 6 5 6 9 8 8 10 10 13 14 8 10 16 15 11 7 2 1 4 5 4 2 3 8 10 12 9 3 3 9 10 7 7 9 6 5 7 9 11 14 16 11 7 6 3 5 9 13 16 10 0 3 11 13 13 15 16 19 19 18 19 20 19 20 14 8 15 18 10 11 16 12 10 9 8 7 8 7 5 3 4 4 3 3 4 3
2 3 2 1 3 9 10 9 9 11 14 12 7 9 17 19 17 11 5 4 4 7 9 9 9 10 11 11 10 7 4 8 11 7 6 8 9 8 7 7 7 9 11 10 9 7 4 7 9 10 15 14 5 2 9 13 13 12 13 16 17 19 22 22 20 20 15 12 19 20 12 16 19 12 11 9 6 5 4 2 1 1 2 3 4 4 4 3
2 3 3 2 2 7 9 9 10 10 9 10 9 8 12 18 19 13 6 6 10 10 11 16 15 12 11 10 10 10 10 10 8 5 6 10 9 8 7 5 6 8 10 8 6 7 7 8 9 8 9 13 10 5 6 11 13 13 14 15 15 16 19 18 18 17 14 16 25 22 16 18 14 6 7 6 4 4 5 5 4 4 4 4 4 4 4 3
2 3 5 5 5 8 10 10 11 11 9 10 11 11 12 17 18 13 6 4 7 9 12 16 13 9 7 9 12 12 12 15 13 7 6 8 7 6 5 5 7 10 10 6 2 4 7 5 6 7 6 10 14 12 9 8 8 11 14 15 16 16 17 18 18 17 15 19 24 20 17 16 8 6 8 8 7 7 9 11 7 2 2 3 4 5 4 2
3 4 6 5 5 7 10 10 11 11 10 10 11 11 12 14 15 13 8 3 2 3 7 11 11 7 5 11 15 9 4 8 10 5 2 2 1 1 2 5 11 12 10 9 3 1 5 4 4 7 8 11 14 15 11 4 3 7 12 16 20 21 20 19 18 19 20 19 17 15 14 8 5 8 12 13 13 12 11 12 7 3 4 5 5 5 3 3
Wind_Direction
226 225 222 221 223 222 221 218 215 212 211 210 208 207 209 211 214 217 220 220 219 219 219 217 220 225 222 216 207 207 200 183 200 206 215 216 192 173 163 179 194 260 320 320 286 277 239 211 199 188 191 176 216 228 170 151 158 194 221 232 236 233 220 189 192 193 234 237 169 178 189 197 188 171 177 161 205 209 168 205 210 212 225 205 48 52 143 150
227 225 223 220 221 223 220 218 217 214 212 210 208 207 206 208 212 215 218 217 217 217 217 215 216 221 220 214 206 206 209 214 234 232 229 218 194 190 183 189 192 165 327 326 310 257 239 223 195 179 184 188 184 201 187 166 190 213 225 232 238 237 206 178 204 200 215 254 172 180 196 205 199 166 166 198 195 190 203 207 213 228 216 189 152 138 149 158
228 223 222 220 219 221 220 219 218 216 213 211 209 207 204 206 210 213 216 215 215 216 215 214 211 214 221 213 203 200 200 226 250 241 231 216 198 193 193 204 203 194 312 310 290 238 235 309 237 193 185 206 190 181 199 169 186 218 224 236 238 217 168 189 212 210 206 270 169 181 189 211 210 155 167 207 196 192 215 213 200 221 220 191 163 157 160 169
227 221 220 219 219 219 217 217 218 216 214 211 209 208 204 203 208 210 212 214 213 214 212 209 206 207 216 210 201 197 181 283 253 238 229 217 209 194 187 203 203 202 272 304 272 225 210 39 360 227 187 200 195 183 204 185 183 190 213 236 240 152 223 212 203 213 182 59 215 168 158 209 210 154 185 195 196 207 223 222 208 216 218 188 159 162 170 175
227 223 221 219 218 218 217 217 216 216 213 211 210 208 205 203 206 208 209 213 212 211 208 204 202 201 208 202 188 180 159 261 248 230 230 223 219 209 191 201 201 205 240 283 251 206 198 102 39 283 218 199 185 191 211 195 180 199 225 238 210 136 232 205 178 190 139 121 195 162 174 193 159 186 209 200 212 222 220 222 218 221 216 178 164 168 173 181
227 224 223 221 218 217 218 215 215 215 213 211 210 209 207 203 205 206 207 211 211 210 203 199 198 196 200 191 177 172 175 213 3 213 224 219 215 213 199 201 199 205 221 223 202 179 173 142 132 212 230 212 194 197 206 188 182 224 231 231 190 181 231 197 146 168 158 178 187 180 187 155 164 211 212 212 226 228 65 213 223 226 200 150 159 167 176 186
229 224 223 222 218 216 215 212 210 213 213 211 209 209 207 204 204 205 206 207 209 207 199 194 192 193 190 178 176 183 204 229 32 155 200 203 204 204 197 192 187 189 195 179 164 175 174 164 179 185 203 217 202 201 199 181 190 229 235 218 191 193 224 306 129 165 178 197 192 153 166 178 198 211 183 218 231 193 72 38 332 195 145 144 160 173 185 191
230 226 223 220 216 214 213 210 208 208 211 211 209 210 208 205 203 204 204 204 206 204 198 191 190 190 179 173 179 194 221 231 261 173 182 191 193 189 184 177 174 175 177 177 168 174 174 181 189 169 201 209 191 194 186 183 198 224 236 208 167 191 193 294 123 176 189 200 169 149 198 207 203 198 170 223 230 197 134 76 63 135 152 169 181 185 192 194
230 228 222 218 215 214 212 209 208 206 207 209 208 209 209 206 204 203 202 201 202 201 197 190 189 187 176 175 185 209 227 217 228 194 178 184 181 177 178 171 174 174 166 171 169 164 162 196 206 155 222 209 190 193 181 198 207 211 227 203 159 199 169 173 191 189 199 200 170 193 217 217 166 66 246 235 225 187 163 173 143 153 172 187 195 194 196 198
228 227 222 217 215 215 213 208 207 205 203 205 206 207 208 207 205 202 200 198 198 200 196 190 187 184 180 179 190 213 241 200 197 180 171 175 169 166 173 170 171 166 148 145 147 146 146 148 351 338 296 249 201 201 185 201 204 194 211 198 162 195 156 184 207 179 194 215 192 211 226 203 107 212 237 234 205 175 182 203 191 190 200 197 201 202 202 206
226 225 221 216 214 213 212 209 206 204 202 203 203 205 207 206 204 201 198 195 195 198 194 191 187 185 186 184 198 212 16 180 189 170 164 169 166 164 163 160 161 153 138 127 126 125 119 65 25 356 315 323 224 225 218 215 249 181 184 176 174 175 173 194 207 179 187 212 189 217 246 197 140 213 231 216 128 180 198 203 199 212 219 206 204 203 204 213
225 224 221 216 212 211 210 208 206 205 202 201 201 203 205 205 202 199 196 191 192 196 194 193 189 186 189 197 210 206 60 167 185 166 161 160 158 161 156 154 157 152 140 128 134 142 143 65 31 61 9 330 220 107 277 238 323 169 173 200 191 186 222 200 191 185 198 203 168 197 255 234 211 210 232 220 126 192 211 208 204 215 224 212 204 203 206 212
225 223 220 215 211 209 208 205 205 204 201 199 199 200 203 202 199 197 193 188 190 194 193 194 191 185 189 216 218 201 145 153 182 171 161 153 141 145 148 148 147 144 137 130 140 161 183 180 58 64 7 336 220 322 301 91 100 164 185 231 197 209 231 196 175 173 195 191 155 190 245 241 222 203 220 218 160 177 213 216 213 215 222 216 206 207 210 206
223 222 219 215 211 207 205 202 203 203 200 199 197 197 199 199 197 195 189 184 186 190 193 195 188 183 196 234 234 209 217 192 179 177 175 171 145 135 143 141 136 135 131 127 132 153 182 177 96 63 336 302 306 311 312 60 21 165 168 248 217 224 220 175 168 174 188 180 156 199 244 253 228 187 208 213 172 187 216 218 217 215 215 219 215 214 217 208
221 221 218 215 210 205 203 201 202 201 198 197 194 193 196 196 194 191 185 181 182 185 189 191 182 176 210 244 262 219 217 210 182 180 179 173 151 136 143 138 131 132 128 128 136 154 168 155 95 52 320 303 325 300 165 90 334 177 178 211 216 223 206 169 176 189 196 177 171 198 237 253 250 187 201 198 176 199 224 225 222 220 214 217 220 219 224 217
219 219 217 214 208 204 203 201 201 198 196 194 191 192 195 193 190 186 182 175 175 180 181 184 182 181 224 222 218 220 212 207 194 185 177 173 161 145 136 127 121 122 119 124 135 143 149 135 87 39 322 314 235 219 154 127 186 213 215 212 207 209 211 195 178 200 205 161 187 212 242 251 250 201 182 140 185 205 226 232 229 227 222 218 218 220 222 220
218 217 215 213 207 202 200 200 199 196 194 190 186 191 191 189 185 179 174 171 173 177 177 176 175 185 252 221 191 211 203 196 193 187 179 180 171 150 136 121 114 117 111 121 131 127 133 126 83 119 293 275 238 209 174 188 197 203 214 219 209 200 209 210 173 188 202 195 209 216 238 251 250 204 172 143 195 207 225 236 235 233 230 224 222 221 223 225
217 215 213 211 207 201 199 199 196 194 191 186 183 189 186 180 178 170 163 164 162 159 165 168 159 177 241 221 210 204 193 187 188 189 181 178 172 158 145 130 126 123 113 122 140 122 133 116 89 132 275 241 230 216 196 198 203 202 201 205 200 195 208 214 194 159 183 209 225 215 230 247 247 227 203 192 191 211 228 234 239 238 234 230 227 227 226 228
216 214 211 208 205 202 199 195 193 190 186 185 182 178 171 163 163 161 156 155 150 151 172 176 170 182 239 205 204 206 191 185 186 188 179 167 166 160 144 137 139 134 130 150 158 140 142 109 112 195 226 220 219 221 209 205 238 212 201 197 187 192 211 215 195 142 182 207 224 223 235 247 244 234 222 215 198 213 236 242 245 243 240 236 230 231 228 227
216 210 207 205 203 200 196 191 191 186 181 180 171 157 152 146 144 154 159 163 178 189 178 172 185 197 22 156 187 190 184 181 182 186 180 167 156 151 141 144 149 149 164 170 150 148 144 129 172 205 211 219 223 234 242 297 312 212 189 194 192 197 211 208 175 136 186 215 225 227 242 251 248 240 231 228 222 224 238 244 246 242 239 236 232 233 230 229
215 207 204 203 200 198 194 190 189 184 180 176 166 155 157 161 158 168 167 190 207 199 169 162 193 210 9 49 175 174 167 181 182 176 176 169 153 152 162 161 164 175 177 150 134 148 147 162 205 206 205 219 228 245 259 284 291 221 182 186 193 205 210 188 166 142 163 221 239 230 243 255 252 246 238 230 232 240 239 240 244 242 240 240 239 238 237 235
211 206 203 201 198 195 191 188 185 182 178 172 167 166 175 173 178 168 159 180 209 206 207 147 181 219 235 11 151 165 163 189 185 169 167 169 162 167 178 175 179 182 167 142 133 152 169 200 210 197 194 210 226 248 257 268 272 244 198 185 196 199 184 142 140 134 160 211 249 240 249 264 260 254 246 229 229 245 243 238 243 243 241 243 243 242 242 240
209 204 202 200 197 193 190 186 183 179 174 169 171 177 179 179 177 158 149 128 185 196 222 180 182 210 209 279 130 174 189 190 184 173 167 171 174 176 176 182 190 180 163 165 162 165 190 211 196 181 179 194 211 228 241 256 263 256 215 194 193 168 167 198 172 151 181 213 284 292 270 271 268 262 247 225 222 243 246 239 240 239 238 241 243 244 240 241
208 203 201 198 194 193 191 184 177 174 171 170 175 178 176 175 164 157 147 52 164 180 208 199 191 204 204 191 160 192 201 195 191 177 170 172 172 173 181 188 191 182 174 182 179 184 207 189 159 165 177 190 205 213 223 235 244 258 241 213 184 156 172 172 128 143 179 228 262 294 279 269 263 258 250 225 214 235 244 238 238 233 233 239 241 242 238 238
206 202 200 196 194 190 184 176 169 169 170 171 174 171 172 169 161 162 148 45 168 142 178 184 191 209 200 157 161 182 202 219 219 180 173 178 171 165 182 189 188 187 186 185 184 204 216 157 141 161 175 188 201 210 216 218 227 247 252 241 194 155 154 114 126 150 210 235 206 219 260 265 254 249 248 228 204 229 240 233 238 234 231 235 234 239 239 236
203 202 198 196 194 184 177 171 166 166 166 174 173 162 167 167 161 161 141 28 193 148 159 169 168 188 186 169 154 138 196 230 205 172 180 186 180 169 172 174 191 193 183 181 187 220 206 154 146 160 169 182 195 213 217 209 223 236 239 249 205 146 143 141 152 177 232 247 176 190 245 267 267 253 245 233 209 234 242 229 235 237 231 232 230 236 239 236
201 199 194 195 191 179 173 158 160 163 163 174 167 156 161 163 158 160 140 14 209 160 148 160 160 174 179 173 154 152 189 167 144 179 191 190 186 184 179 169 176 186 163 157 201 209 174 160 154 160 168 177 191 212 211 201 218 233 193 205 184 146 151 153 165 203 233 279 107 191 231 269 270 260 245 239 231 245 252 242 237 232 226 229 230 234 236 235
201 197 193 194 186 177 171 151 154 165 170 165 160 153 155 157 156 160 165 171 186 140 137 157 161 162 166 156 161 189 215 111 148 196 191 192 191 192 196 182 173 170 160 168 197 188 170 168 161 164 170 180 198 203 192 193 215 248 216 193 170 147 148 150 182 218 253 319 251 204 175 251 263 254 205 214 232 245 249 245 242 233 222 224 229 231 231 233
199 195 194 191 182 177 171 157 157 165 160 157 156 153 149 149 151 154 187 185 143 115 133 148 148 153 157 153 173 207 223 120 217 178 167 193 195 150 211 193 174 164 169 187 195 176 178 173 162 164 175 192 199 184 171 191 209 242 222 148 83 82 97 116 196 199 97 245 249 203 169 230 267 261 225 187 216 239 244 246 245 236 223 221 225 226 228 232
197 196 194 186 178 172 162 156 159 154 151 154 154 151 145 142 151 167 190 197 129 133 135 148 162 162 159 158 180 203 205 197 245 146 163 190 184 163 314 220 172 161 175 201 201 340 332 151 157 172 190 188 178 164 177 196 186 155 188 115 74 48 65 71 143 118 182 241 235 187 177 216 265 262 232 204 207 228 240 247 245 233 229 231 231 228 230 235
197 196 190 180 172 164 152 147 153 150 150 152 149 145 141 139 164 183 180 145 108 140 138 154 161 158 162 170 181 192 199 202 189 169 179 181 177 181 153 79 171 159 173 193 199 268 29 127 156 182 172 144 148 163 178 185 161 147 184 143 112 80 88 110 122 154 229 241 214 186 182 204 241 249 222 215 211 224 242 250 250 236 228 237 238 231 231 234
196 193 183 174 168 164 158 149 151 151 150 148 144 138 139 138 176 193 160 113 157 161 158 165 160 158 170 180 183 182 193 200 187 186 192 179 185 193 177 170 169 160 171 178 187 218 202 158 170 161 145 148 154 168 150 148 165 163 168 156 156 172 154 190 188 188 231 234 88 186 187 204 239 251 246 246 237 235 241 245 253 250 238 238 229 216 210 207
193 185 175 170 168 164 158 150 149 151 148 144 141 142 158 155 181 185 164 158 174 156 158 167 165 166 171 181 187 179 188 199 187 190 200 187 189 201 201 184 175 180 179 171 179 190 192 205 188 167 156 163 165 170 167 162 173 177 176 174 178 171 172 202 206 216 238 230 75 135 185 224 252 251 244 243 242 243 242 239 243 245 247 251 242 235 221 207
189 177 170 168 166 160 154 150 150 149 146 141 139 153 162 175 179 176 177 181 163 145 156 163 166 171 176 184 183 169 181 202 190 190 199 196 196 197 203 197 188 192 164 164 182 182 189 209 194 182 165 167 181 186 179 169 175 186 184 185 193 182 188 203 204 220 227 188 135 157 175 218 213 184 255 240 248 256 257 257 250 245 250 265 277 264 249 238
180 170 165 162 158 155 152 152 152 149 145 140 146 159 168 180 171 176 186 178 161 157 158 160 164 173 184 189 181 173 183 199 188 195 200 199 212 188 187 195 195 194 154 163 185 180 207 241 182 182 166 165 182 191 177 166 175 189 181 195 210 199 191 189 201 233 203 151 200 187 233 240 227 320 297 250 253 257 251 251 241 243 242 243 263 260 250 248
169 162 160 152 149 153 153 154 152 149 146 143 155 170 185 186 171 178 180 162 161 163 158 163 167 175 187 191 184 179 187 201 185 197 214 205 213 196 188 190 191 198 181 166 167 168 203 228 165 169 178 182 186 181 172 172 171 181 190 200 213 202 190 193 195 60 57 263 225 181 240 260 276 289 273 245 246 244 237 230 220 232 230 223 253 253 243 246
161 154 151 144 148 153 154 154 152 149 149 151 163 180 187 188 170 165 164 142 141 159 157 163 171 176 183 186 192 180 177 186 180 189 216 209 207 189 196 211 193 201 198 172 176 188 189 197 164 172 184 192 190 176 180 188 164 166 196 184 141 5 263 229 228 195 208 254 233 183 224 236 219 254 260 224 236 239 235 223 194 208 217 220 244 242 236 243
154 145 139 144 150 152 153 154 151 146 148 157 175 187 178 177 165 159 162 148 139 161 163 167 173 179 180 181 191 178 171 177 176 182 201 205 209 177 179 214 207 206 209 179 167 208 187 149 178 190 187 177 168 173 188 208 198 213 210 177 148 196 200 177 218 217 213 240 249 202 214 227 214 216 220 217 222 236 239 223 192 208 215 220 240 244 248 262
151 138 130 151 151 153 154 153 149 141 151 167 183 186 170 180 186 159 166 159 148 162 173 183 174 182 187 184 185 175 175 182 173 175 193 192 202 179 172 186 210 205 209 203 178 177 185 187 188 201 181 147 153 186 191 200 217 263 233 186 173 225 190 179 203 216 213 237 261 236 201 228 215 198 219 238 239 242 240 219 220 227 221 226 235 245 270 286
146 123 121 152 152 154 153 149 144 150 162 172 180 168 165 179 164 51 166 165 157 165 178 187 178 175 186 189 187 177 181 190 180 177 192 182 183 183 173 174 196 202 199 207 220 170 175 214 190 159 149 154 176 198 191 188 190 202 200 187 186 216 208 196 201 216 225 229 247 252 246 243 199 176 208 231 238 235 229 214 219 225 228 235 226 234 267 263
134 103 129 152 152 152 149 141 138 160 163 173 172 158 160 166 138 92 359 134 147 129 175 179 179 178 183 187 187 180 182 194 191 186 194 189 194 198 174 169 180 192 188 197 216 191 183 209 186 157 165 183 194 199 199 196 189 189 193 188 187 186 177 191 202 202 224 233 236 259 266 254 165 173 206 219 225 227 226 220 218 220 227 233 222 227 246 247
131 106 133 150 151 148 143 135 141 155 180 175 161 147 142 152 158 159 131 74 95 53 122 172 180 182 187 190 189 185 185 191 192 192 198 205 212 209 177 173 173 173 181 195 197 189 171 159 164 164 182 193 197 204 210 202 193 194 207 200 194 188 180 196 209 196 192 227 246 283 278 262 149 173 202 204 214 224 228 229 238 243 235 236 256 247 245 248
124 118 136 149 152 148 141 143 143 160 204 150 136 131 128 147 160 156 155 160 139 99 167 174 177 187 194 196 190 189 191 194 196 199 199 204 216 205 175 177 172 167 181 198 187 192 301 159 158 157 166 129 38 26 354 194 186 189 224 208 198 203 203 204 207 179 191 210 203 229 256 248 145 163 206 209 217 223 216 206 231 247 246 250 263 260 256 255
118 110 130 151 155 153 148 153 156 172 178 149 150 156 115 128 160 166 178 177 165 162 176 171 159 198 195 182 194 192 189 194 201 205 205 202 215 191 170 179 177 172 182 187 182 196 208 178 164 162 169 157 140 163 152 178 185 191 201 198 199 207 209 212 103 153 216 214 199 219 247 239 140 92 103 348 331 273 246 205 221 244 253 251 252 253 256 260
125 114 109 150 158 160 160 159 164 172 165 159 170 169 157 143 149 184 184 170 122 143 172 167 157 181 161 112 224 198 190 199 203 201 209 204 194 129 170 178 179 183 194 193 188 193 202 192 177 173 177 178 189 195 185 180 185 195 197 193 198 203 199 200 205 195 220 217 200 219 239 227 74 102 181 158 298 276 267 220 215 243 248 249 250 253 260 264
132 129 129 136 158 175 194 134 155 166 160 162 173 172 172 171 90 50 181 175 150 134 128 64 141 170 149 149 232 214 198 206 207 188 198 197 185 157 170 174 179 190 196 201 197 174 197 226 197 198 205 192 193 198 172 170 178 187 193 192 195 200 198 199 205 208 221 221 212 226 234 229 106 192 204 204 206 243 248 225 218 230 231 237 240 244 260 265
121 130 147 139 144 171 194 176 161 164 164 170 174 169 177 180 152 104 177 206 193 162 101 62 159 189 174 169 195 233 209 206 206 196 192 188 168 127 167 177 185 187 187 194 190 157 165 246 209 215 223 213 67 100 149 167 185 191 191 193 193 193 195 200 212 220 219 219 237 238 231 241 241 205 198 216 206 217 233 225 224 220 209 214 215 226 244 247
86 123 153 147 146 168 186 183 175 170 166 170 167 162 178 185 173 167 177 143 176 189 183 168 197 201 188 172 172 191 227 210 208 205 190 182 169 146 165 189 196 187 184 186 183 175 208 227 211 220 224 218 16 139 169 177 197 200 193 192 189 185 192 203 215 223 214 204 240 241 215 229 243 218 195 208 205 209 222 221 229 230 203 192 187 219 241 230
98 103 119 63 148 168 166 156 160 167 167 169 168 166 179 187 186 181 154 120 174 202 203 205 199 190 187 176 169 176 195 206 210 205 182 181 176 160 161 185 198 194 192 193 187 182 208 221 209 216 224 222 220 188 182 183 194 203 199 193 187 186 198 207 217 226 219 217 244 250 234 238 245 221 192 196 200 220 251 272 257 235 216 197 190 214 234 217
119 136 130 68 103 153 154 143 153 167 167 172 185 182 182 190 190 180 150 156 181 186 201 211 199 179 177 178 186 200 196 201 227 238 193 186 179 171 175 174 170 182 197 212 201 185 204 218 200 196 226 229 219 219 210 195 193 194 195 195 189 190 203 214 225 229 220 227 243 248 245 247 246 200 176 188 189 213 246 247 213 194 206 203 195 216 226 221
50 105 132 121 110 138 156 159 165 175 175 182 192 185 184 195 190 177 173 198 190 183 199 205 189 163 166 184 201 212 200 203 222 239 225 213 193 178 187 174 154 162 187 215 217 185 203 208 180 181 217 229 216 211 214 213 210 203 196 189 184 190 203 212 222 222 208 221 238 243 246 251 235 167 186 205 204 212 232 236 225 208 221 205 208 223 217 200
74 96 129 130 115 138 161 166 172 183 187 191 193 182 184 193 182 172 186 213 200 201 197 181 161 146 175 201 207 207 178 195 211 203 196 265 275 170 175 172 164 160 175 190 179 205 214 202 176 183 208 228 218 207 203 216 262 222 201 188 185 194 205 210 220 222 213 218 231 234 239 239 162 169 202 211 213 220 234 238 226 213 241 229 216 222 217 194
Height
756 759 761 763 766 769 772 775 777 779 781 783 785 787 789 791 793 795 797 798 800 801 804 806 807 809 809 810 812 814 816 816 817 817 816 813 813 813 812 815 819 822 824 825 826 827 826 826 826 827 828 829 830 830 830 831 832 834 838 843 840 834 833 829 829 830 828 827 829 832 831 830 833 835 835 834 835 835 836 836 834 835 834 835 836 837 837 838
753 756 758 759 763 766 769 772 774 777 778 781 783 785 787 789 791 793 795 797 798 800 802 804 806 807 808 810 811 813 815 815 817 814 811 812 812 810 811 813 817 820 824 826 826 826 827 826 826 826 827 829 830 830 831 831 833 834 836 840 835 826 824 822 823 824 825 826 826 829 830 829 829 830 833 834 835 835 837 836 835 835 833 834 836 837 838 838
748 751 754 756 759 762 766 769 772 774 776 779 781 782 785 787 789 791 794 796 797 799 800 803 805 806 808 809 811 814 814 816 815 806 804 810 811 808 810 812 815 820 824 826 826 827 827 826 827 826 827 829 829 831 832 831 832 833 835 838 829 822 822 822 822 822 823 824 825 828 830 831 828 828 832 833 833 835 834 831 833 834 831 831 834 836 838 839
744 746 749 752 755 758 762 766 769 772 774 777 779 781 782 784 787 789 792 794 796 798 799 802 804 806 808 808 811 812 814 818 807 795 800 807 808 807 807 809 813 819 822 825 827 827 827 828 828 826 828 830 828 830 832 830 830 832 833 832 824 822 824 821 822 822 824 827 826 828 832 833 829 829 831 830 833 835 829 824 825 827 825 827 832 834 836 838
741 743 745 748 752 755 758 762 766 769 771 774 777 779 780 783 785 787 790 793 795 797 798 801 803 805 807 808 811 811 817 819 796 786 797 801 804 805 805 807 811 816 820 824 826 827 828 828 829 830 829 828 829 831 830 826 827 831 828 823 823 826 824 820 821 824 826 829 829 829 831 830 829 830 829 828 830 827 821 819 818 819 820 823 828 832 834 836
737 739 741 744 748 751 755 758 763 766 769 771 775 777 779 781 783 785 788 791 794 795 797 800 802 805 806 808 810 810 813 807 787 783 791 795 801 803 803 805 808 812 817 823 827 828 828 828 832 835 831 826 827 829 827 824 826 830 825 820 823 825 824 821 822 826 827 828 829 829 827 826 829 829 826 826 823 818 816 816 817 817 818 821 825 829 832 833
732 735 738 741 744 747 750 755 759 763 766 769 772 774 777 779 781 783 786 789 792 794 796 798 801 803 805 808 810 810 806 793 784 786 788 791 798 801 802 803 805 809 815 822 827 829 827 828 831 832 832 828 825 825 823 823 826 829 824 819 823 824 824 825 825 828 827 826 826 826 827 827 828 827 827 826 818 816 818 818 818 818 819 822 825 827 828 829
728 731 734 737 740 743 747 751 755 759 763 766 770 773 775 777 779 781 783 788 791 793 795 797 800 801 804 806 807 809 801 789 787 789 790 792 795 798 800 801 803 806 812 819 823 827 828 829 829 828 831 827 822 822 822 824 827 828 823 819 823 825 825 827 828 829 828 826 827 828 827 826 825 827 828 823 816 816 818 819 820 820 821 822 823 825 826 827
724 728 731 734 738 740 743 747 752 755 759 764 768 771 774 776 778 779 782 786 789 792 794 796 799 800 803 804 805 805 793 787 791 790 791 793 794 796 796 797 801 803 809 817 820 826 830 830 829 828 829 825 821 821 820 825 826 822 821 820 823 824 824 828 828 828 829 827 828 828 826 825 825 829 825 816 813 815 817 820 820 820 821 821 822 822 823 824
720 723 726 730 735 738 741 744 749 752 756 760 764 769 772 775 777 778 780 784 788 791 793 795 797 799 801 801 804 801 787 786 793 790 791 792 793 796 794 794 797 801 808 815 819 825 829 830 830 829 829 826 823 822 820 822 820 816 819 820 822 824 824 827 826 827 829 827 827 826 824 825 828 831 822 811 811 813 816 819 820 820 820 820 820 820 821 822
715 719 722 725 730 734 737 741 745 749 753 757 762 766 769 772 775 777 779 782 786 790 792 793 795 797 799 799 801 796 786 788 792 791 793 793 793 794 793 793 795 799 806 813 819 823 828 829 830 831 832 831 827 826 822 819 817 816 819 823 825 825 825 827 826 827 828 825 826 825 824 826 830 831 819 811 813 813 814 816 818 819 817 817 818 818 819 820
710 714 718 721 725 729 733 737 741 745 750 754 759 763 767 771 773 775 777 781 785 788 791 792 794 795 798 799 795 790 788 790 792 793 794 794 794 792 792 793 794 798 803 811 817 821 827 829 829 832 834 833 832 831 826 819 819 819 819 824 826 825 825 824 823 825 825 824 824 825 828 826 825 825 815 811 815 815 814 814 817 818 816 816 816 817 817 817
706 710 714 717 721 726 729 733 737 742 747 751 755 759 765 768 770 774 776 779 783 787 790 791 793 794 798 796 790 789 791 790 792 793 794 795 795 795 796 796 797 801 803 808 815 821 827 828 828 832 834 835 833 832 827 822 823 823 823 824 826 830 826 819 820 825 825 824 823 826 831 819 810 814 812 810 813 816 816 814 814 816 815 814 815 815 815 815
701 705 709 714 718 722 726 730 734 738 744 748 752 757 762 766 769 772 775 778 781 786 789 790 792 794 797 793 787 789 790 790 792 791 793 794 795 799 801 799 801 805 806 808 815 821 825 826 827 831 833 834 833 831 829 829 828 827 831 830 827 831 826 816 819 824 824 825 822 826 831 814 802 807 807 806 810 813 813 811 811 811 812 813 813 814 813 812
697 701 705 709 714 719 723 727 731 735 741 746 751 755 760 764 767 770 774 777 780 784 788 790 791 794 797 792 787 788 789 790 791 790 792 792 795 800 803 803 804 806 808 810 814 820 824 826 829 834 835 834 834 835 834 835 834 830 836 837 829 828 825 819 820 820 819 823 822 825 827 814 805 804 802 804 808 810 810 808 807 808 809 810 810 811 810 809
693 697 700 704 709 715 720 724 728 733 738 743 749 754 758 762 765 769 772 775 780 783 786 790 790 792 794 789 785 786 786 788 789 790 792 792 794 799 804 805 806 808 810 812 814 819 823 825 831 837 838 836 836 837 837 839 841 835 832 832 827 827 825 820 821 818 816 820 822 823 821 812 807 802 801 806 808 809 810 806 805 805 805 806 807 807 807 807
687 692 695 700 705 710 715 720 724 729 734 740 746 752 756 761 764 768 771 775 779 781 784 787 788 793 791 785 784 783 781 785 788 790 791 793 794 797 802 804 807 809 810 815 818 819 822 825 832 838 838 839 837 837 840 843 842 836 829 827 823 822 822 820 821 819 818 820 821 821 818 810 805 802 803 808 808 809 809 806 804 803 803 803 803 804 804 805
682 687 691 696 702 707 711 716 721 725 732 738 745 750 755 762 766 767 769 773 777 782 787 787 789 796 789 779 779 777 776 780 784 787 790 792 794 796 799 802 807 808 811 818 819 819 823 826 834 840 841 840 838 837 836 832 828 827 826 826 825 821 818 817 817 819 819 822 821 820 819 810 804 803 802 805 807 808 805 803 802 800 800 800 800 801 801 802
678 683 687 693 698 704 708 713 718 723 730 738 744 751 756 762 766 767 768 770 773 778 781 779 780 782 772 765 771 774 774 777 781 784 788 790 792 796 798 801 804 806 811 817 817 818 820 827 838 844 843 839 835 832 826 819 818 818 818 821 825 823 818 814 814 817 817 822 822 819 816 809 804 804 802 802 804 806 804 801 800 799 798 798 798 798 797 798
674 679 684 689 694 699 704 708 714 721 728 736 742 748 754 759 764 769 770 768 764 763 765 766 766 766 761 760 767 773 774 776 778 780 783 786 789 794 798 800 803 806 808 811 814 815 815 827 839 840 839 836 831 829 823 820 819 817 817 819 820 820 818 815 815 818 816 819 820 815 814 808 802 802 799 799 800 803 803 801 799 797 796 796 795 795 794 793
670 675 680 685 691 696 700 704 710 717 723 730 735 739 743 747 751 754 761 765 760 757 761 763 764 765 764 764 765 768 773 775 776 777 781 785 787 793 797 797 802 805 804 805 811 813 815 825 831 828 831 833 831 829 827 826 824 820 816 817 818 815 814 815 817 818 818 821 817 811 814 807 800 800 796 796 799 798 798 797 795 793 793 792 791 791 790 789
667 671 675 682 687 692 698 702 707 713 720 727 730 732 733 735 736 736 744 756 759 759 762 763 766 766 765 766 766 767 772 775 776 777 780 783 785 790 793 794 797 799 800 802 808 816 821 821 819 820 824 830 833 832 831 830 829 824 816 814 816 812 813 819 820 819 820 822 817 813 816 807 796 795 793 794 797 793 790 790 788 788 789 789 787 786 786 785
663 666 672 678 683 688 693 699 705 711 717 722 724 725 728 732 735 737 742 752 759 762 764 764 765 765 765 767 767 769 771 772 774 775 776 781 783 784 788 791 793 794 798 799 803 813 817 809 808 816 822 828 832 832 833 834 832 827 817 811 811 811 814 818 821 822 820 820 820 820 820 808 795 792 790 790 791 787 784 784 782 783 784 782 781 781 781 781
659 663 669 673 679 684 689 697 705 709 712 717 720 722 726 732 736 740 744 752 758 761 762 763 764 764 765 767 768 770 771 769 770 772 773 776 780 782 784 787 789 794 797 795 797 803 802 796 801 813 821 826 830 831 833 836 835 829 819 810 807 809 811 813 818 822 821 823 824 825 824 808 793 791 787 782 785 783 779 780 779 778 778 777 777 776 774 774
656 661 665 671 676 679 688 697 700 705 710 716 720 722 727 733 736 738 743 752 757 760 763 764 766 765 763 767 769 769 771 770 767 769 770 771 774 779 783 783 786 793 795 794 798 800 796 793 799 812 819 823 828 829 829 832 834 830 821 810 804 805 810 814 817 819 824 825 820 823 828 808 785 784 783 777 782 782 776 777 776 773 773 773 773 771 769 769
653 657 661 668 673 677 687 692 693 702 711 717 719 722 727 731 736 738 743 756 757 758 764 763 763 762 759 765 767 769 776 772 765 767 769 770 770 772 780 784 785 791 792 794 800 798 794 793 797 808 816 820 826 827 824 826 833 831 819 810 805 802 808 814 815 818 821 821 818 822 826 812 790 781 778 776 781 779 772 773 772 769 768 768 768 767 766 766
649 653 657 664 669 674 682 684 692 701 706 713 716 722 727 730 737 736 745 770 764 751 759 762 758 756 754 760 762 768 774 767 764 768 766 769 770 770 778 783 784 787 787 796 804 796 791 795 798 804 811 818 823 822 818 821 830 826 813 810 806 803 808 812 813 816 815 816 823 823 823 822 807 786 775 775 779 777 770 768 765 762 763 762 762 762 761 761
645 649 652 659 666 672 675 679 689 696 700 707 714 722 725 729 738 734 749 780 765 740 751 758 755 753 753 758 762 762 762 759 763 765 763 768 771 773 778 777 777 781 781 790 798 787 783 791 795 799 808 813 812 810 812 819 824 819 812 811 806 803 806 808 811 815 819 823 824 819 822 828 811 785 778 780 780 777 769 761 757 755 757 757 757 756 755 754
643 647 650 657 667 672 675 676 683 691 698 705 712 720 724 729 735 736 753 769 749 734 744 750 752 754 755 759 762 760 758 761 763 759 763 770 770 772 776 772 771 777 779 779 785 784 780 781 785 792 800 801 800 803 809 815 818 816 814 812 809 808 809 813 814 817 828 833 823 814 818 823 806 780 776 784 781 773 762 754 750 748 749 750 749 750 750 750
642 645 648 656 666 671 675 679 684 690 696 704 711 717 722 728 732 744 765 758 734 734 741 744 748 750 755 760 762 761 759 761 763 760 764 768 769 773 774 772 772 777 782 781 784 788 782 777 779 786 790 790 793 800 804 808 812 816 817 815 816 817 816 820 820 821 833 830 815 809 810 817 809 778 765 770 768 760 754 749 747 745 744 744 744 745 747 748
639 642 647 655 663 666 670 679 686 690 696 703 710 716 722 729 733 748 760 742 726 736 741 743 746 745 752 757 757 760 759 759 763 763 764 765 770 775 775 778 779 780 786 789 789 790 786 783 784 784 784 785 793 801 803 807 812 816 816 814 818 823 823 825 827 829 832 820 804 800 802 813 810 778 757 754 751 751 751 747 744 743 743 742 742 743 745 747
637 640 646 654 661 663 665 673 680 686 695 700 708 718 724 735 743 742 742 733 727 735 737 739 742 744 749 750 749 755 756 757 760 761 761 762 767 769 767 771 774 776 784 789 791 791 789 786 784 784 784 784 793 805 810 813 814 814 814 815 821 827 827 827 828 826 821 812 806 803 802 806 794 768 755 751 748 748 748 746 743 742 742 740 740 742 743 745
634 639 648 654 658 662 665 670 676 685 692 696 708 717 721 736 741 729 730 731 723 723 728 732 735 738 743 745 746 750 754 755 756 758 761 761 762 764 762 760 759 761 768 777 785 789 790 789 786 786 786 784 788 800 810 813 814 812 811 813 816 820 823 822 821 819 813 810 811 809 808 804 783 760 750 746 743 741 740 742 742 740 740 739 739 741 742 743
634 640 648 653 657 661 665 670 675 682 688 695 708 717 725 735 729 719 725 727 719 718 722 727 733 737 739 739 739 743 751 754 752 755 761 764 762 761 762 761 756 754 760 772 778 780 783 783 781 780 779 781 784 788 792 798 804 803 799 802 804 803 805 806 805 806 806 808 814 815 807 792 774 757 746 742 741 739 739 740 740 740 741 741 741 741 742 742
636 642 647 652 658 660 665 670 674 678 684 695 707 716 723 724 717 717 721 720 722 724 721 723 730 739 742 737 734 737 741 745 748 751 755 759 760 757 757 760 757 753 759 771 775 775 777 772 767 768 768 771 778 778 780 790 801 799 794 799 798 789 787 795 800 798 800 806 810 812 795 768 756 748 739 741 742 740 741 739 740 742 741 744 743 740 739 738
635 642 647 650 655 659 665 671 674 676 681 693 708 714 711 704 702 708 707 708 718 719 720 726 729 736 741 737 736 737 737 739 746 752 751 751 755 755 752 750 751 749 748 756 765 770 775 769 763 768 771 769 770 772 775 783 792 795 795 795 790 782 780 792 804 803 804 802 794 795 786 764 759 749 732 734 737 734 735 734 736 739 739 743 743 738 736 734
633 638 644 648 652 657 663 669 672 676 682 692 703 704 698 694 695 698 698 704 712 710 716 726 726 728 735 735 734 735 737 741 746 751 751 749 749 752 753 748 744 744 738 741 753 757 760 765 764 765 770 767 763 768 773 773 776 787 792 785 783 788 785 786 797 801 805 800 783 780 778 768 769 757 732 731 735 729 726 726 731 736 737 738 735 732 731 730
630 636 643 647 651 656 663 669 672 675 684 695 699 696 694 695 696 695 695 702 707 708 714 721 719 719 725 728 727 729 735 739 743 747 748 747 743 740 750 752 743 741 737 736 748 751 750 764 772 764 763 767 766 771 778 776 776 783 781 773 777 791 792 790 793 794 797 795 778 773 774 766 761 751 734 731 733 728 725 724 728 731 731 730 728 726 727 727
629 636 643 646 650 656 662 668 672 677 688 696 696 694 694 696 697 695 694 698 704 708 712 714 715 718 720 719 717 722 728 729 735 742 740 740 737 729 737 747 743 741 739 738 744 747 747 759 771 767 763 769 772 774 778 779 781 783 779 775 776 779 780 781 781 778 784 786 774 770 773 759 743 737 734 728 723 723 725 725 726 724 723 724 724 726 727 727
627 635 643 645 649 656 662 668 674 682 689 689 688 690 691 693 698 701 698 696 701 706 708 708 712 716 717 714 712 717 723 722 726 733 731 729 730 727 727 736 742 740 738 740 742 744 747 753 763 770 769 770 771 769 766 767 773 778 779 779 779 777 774 773 771 766 772 777 771 768 763 743 726 724 723 720 718 718 719 721 723 721 720 721 723 725 727 728
625 634 642 645 649 656 662 671 679 683 685 684 684 689 692 692 697 704 704 700 701 705 705 706 709 712 713 713 711 712 718 720 721 726 727 724 724 725 722 723 733 737 738 744 743 740 744 747 756 767 768 763 760 755 750 750 755 762 766 766 767 769 771 777 776 766 765 768 763 764 758 734 719 717 713 713 715 713 713 715 718 719 720 722 723 725 727 727
625 633 641 644 649 655 662 672 680 682 683 683 682 686 690 690 692 700 704 703 704 707 706 705 708 709 709 710 708 708 712 716 718 720 722 720 717 717 716 714 720 729 736 740 737 735 738 742 752 762 761 756 754 751 750 749 749 755 760 759 758 761 763 771 773 764 764 766 760 765 763 735 715 714 712 712 712 711 712 715 717 718 719 721 723 724 724 724
627 635 642 645 648 653 661 672 681 684 683 680 680 685 688 688 691 697 701 701 705 709 706 705 710 710 707 707 706 707 711 712 714 714 714 715 713 709 712 713 715 724 733 734 735 738 739 739 750 760 759 757 757 756 754 752 752 759 763 760 759 757 751 753 755 754 760 761 759 769 766 735 716 717 716 715 715 715 715 716 718 718 718 722 723 720 721 722
628 636 643 648 651 652 656 664 673 680 682 680 683 689 691 689 690 693 695 697 702 706 702 702 709 709 708 709 705 703 708 711 711 710 709 711 711 709 709 711 714 720 726 727 728 732 733 733 742 754 759 760 761 760 759 758 757 758 757 755 754 751 749 753 754 755 756 750 751 763 753 728 720 723 722 723 724 721 717 719 723 720 719 722 720 718 720 721
628 637 645 651 654 655 656 657 660 669 677 681 684 688 690 692 693 691 690 696 702 703 700 703 708 707 710 714 709 701 703 706 707 707 707 708 710 711 709 710 714 717 718 719 718 722 727 725 728 739 744 746 746 742 741 744 748 748 746 747 748 746 748 751 752 758 757 745 745 750 738 724 724 723 721 723 725 722 718 721 726 724 721 720 718 717 718 719
624 633 643 652 657 659 659 658 659 665 673 680 685 687 689 692 695 694 691 698 706 704 702 708 709 707 710 713 711 708 704 702 705 706 707 708 710 711 710 709 713 716 716 720 721 727 732 725 718 722 722 720 721 718 716 723 734 739 739 739 741 739 740 743 749 752 746 740 741 735 723 725 727 722 720 720 720 720 717 715 718 719 717 717 716 716 717 718
621 626 635 644 654 662 663 660 661 664 668 673 678 683 687 688 692 697 696 699 704 702 704 711 709 705 707 709 712 714 708 703 707 706 704 706 709 711 711 709 712 715 718 722 725 729 734 729 720 717 713 712 716 716 714 718 724 727 728 730 733 735 738 743 746 739 732 741 743 723 716 726 724 717 719 717 717 719 715 711 710 709 709 711 712 714 715 716
622 626 631 633 640 652 658 656 657 660 664 669 671 676 683 687 689 694 697 700 703 699 700 709 709 702 699 701 706 713 713 708 707 706 703 704 708 713 714 713 713 714 718 723 724 726 731 728 721 719 715 713 717 716 712 715 718 718 722 726 729 734 738 739 737 726 725 740 734 713 715 724 714 709 713 712 712 712 709 709 709 707 708 708 710 712 712 711
623 629 635 635 636 643 649 653 657 662 665 669 672 675 679 683 685 687 692 701 705 699 694 698 703 701 697 696 698 706 713 710 705 704 704 703 705 710 714 716 716 716 720 723 722 723 726 724 720 722 721 716 718 718 713 714 717 719 722 724 726 730 732 731 728 721 724 731 720 708 717 716 702 701 705 705 708 709 709 714 713 711 711 709 707 708 707 708
622 625 632 638 641 644 649 655 661 666 670 672 674 675 676 679 681 682 687 693 696 696 692 688 692 696 695 695 694 696 701 703 702 703 702 701 703 704 706 709 712 717 722 723 721 720 722 719 715 721 727 723 720 720 717 714 715 719 722 722 725 731 734 732 727 722 728 729 714 709 718 710 695 696 701 703 708 710 712 714 710 708 709 707 705 704 703 705
621 623 626 633 642 648 652 657 661 665 670 671 670 670 673 675 676 679 684 686 686 688 688 685 689 695 695 694 693 689 691 695 699 701 699 697 698 697 698 701 706 715 723 725 724 722 720 718 716 722 729 724 717 718 720 717 718 720 721 722 727 731 730 727 719 714 721 722 714 715 720 707 694 696 700 702 706 708 707 704 703 706 707 706 704 701 701 703
623 626 627 630 642 651 652 657 663 664 664 663 662 663 666 669 672 677 684 688 687 687 686 686 690 695 697 695 689 686 689 691 694 698 700 700 699 695 695 697 698 706 716 721 725 725 722 719 718 722 726 718 710 714 720 725 728 725 716 712 715 717 715 713 709 706 709 711 712 714 708 697 693 698 700 701 702 704 702 698 699 703 704 703 703 701 701 702